Theta_e
325 325 323 322 322 321 321 323 325 332 338 339 339 337 339 339 343 344 346 349 348 350 352 354 355 356 357 357 358 358 359 359
326 325 324 321 322 320 319 324 326 326 345 340 337 337 339 339 341 342 342 345 347 347 349 352 354 355 356 357 357 358 360 360
325 325 322 322 321 321 319 320 322 324 330 339 339 339 338 337 340 342 342 342 343 344 349 352 353 355 356 358 358 360 360 359
324 325 325 324 322 320 319 321 322 323 326 337 336 338 336 338 342 340 341 343 344 346 348 350 351 353 354 354 355 356 357 357
324 323 323 323 324 321 321 319 320 323 326 335 336 335 338 338 340 342 341 341 342 346 348 349 351 352 353 354 355 355 356 358
326 325 325 325 325 325 321 320 321 323 328 337 337 337 336 337 338 343 342 342 343 345 347 349 350 352 354 355 355 356 357 359
327 326 325 324 325 325 324 322 322 323 324 333 337 336 336 336 343 343 343 342 346 346 347 348 351 353 354 355 355 356 359 358
335 333 327 328 325 325 325 325 324 324 324 335 335 336 336 336 345 346 343 343 344 347 348 349 350 353 354 354 355 355 358 357
334 334 335 336 325 325 324 325 325 324 326 335 334 334 334 336 342 341 343 346 347 348 349 349 350 352 355 357 356 358 357 357
333 334 339 335 332 333 332 329 327 327 326 336 334 336 339 339 346 348 347 347 346 353 350 350 352 354 357 358 360 363 358 359
335 336 335 335 336 335 333 332 331 331 330 330 336 341 336 338 346 351 351 350 351 347 354 354 356 358 360 361 363 363 361 357
336 339 341 334 333 332 331 330 330 333 334 329 338 335 348 355 355 354 352 347 345 357 348 357 358 360 363 365 366 365 363 361
337 337 335 335 332 335 338 331 333 336 341 337 339 342 354 354 354 354 352 350 349 355 359 362 364 362 363 363 361 361 362 362
337 339 339 334 332 334 332 331 333 337 339 341 347 352 352 352 352 351 352 353 352 351 353 357 361 361 364 368 365 364 360 360
335 335 332 333 333 333 334 335 335 337 341 351 351 350 349 349 349 349 351 353 352 348 344 343 348 351 356 361 363 363 366 363
336 334 334 333 333 331 332 331 331 332 341 343 348 351 350 350 350 350 349 348 350 353 351 346 341 343 352 358 360 361 361 360
333 332 332 331 330 330 332 332 331 332 330 339 336 348 347 346 345 345 346 350 350 353 354 353 348 343 343 343 346 348 348 353
336 333 333 331 329 329 332 333 332 332 329 333 338 346 345 346 346 346 347 346 346 349 350 349 351 348 346 344 340 339 343 346
331 331 331 330 329 334 333 329 333 329 333 336 341 346 344 342 344 346 348 348 348 348 348 347 348 346 344 341 338 338 341 343
Wind_Speed
13 18 10 10 6 10 5 9 5 3 4 2 8 8 16 15 26 33 35 39 38 36 34 34 36 34 35 35 31 30 29 28
16 12 9 10 8 4 4 5 7 5 2 5 10 15 16 24 25 33 36 38 38 30 31 32 31 32 30 33 30 27 28 26
7 4 10 3 5 5 2 3 5 4 6 6 9 11 9 10 27 33 34 32 32 29 31 28 28 25 26 24 24 22 22 19
12 11 9 8 11 10 5 10 5 5 8 7 9 13 7 12 9 30 31 30 26 30 29 28 25 22 23 22 22 20 18 17
8 8 9 6 7 9 5 4 10 4 7 5 2 10 21 30 40 27 24 24 22 25 27 25 24 23 22 20 20 20 19 16
6 7 7 11 9 8 8 4 6 8 6 5 3 5 5 22 36 28 28 25 26 25 23 23 25 25 24 22 19 19 19 19
11 11 15 15 15 10 11 11 10 13 8 9 2 4 4 25 28 25 25 23 27 27 27 25 24 25 25 22 19 21 20 19
7 12 14 20 16 15 15 9 12 9 12 10 9 14 18 18 21 25 28 25 20 29 30 27 24 26 25 23 20 21 21 20
6 8 16 10 10 11 10 12 6 11 7 11 11 13 19 18 7 13 13 11 22 30 31 28 26 23 24 22 20 18 22 21
6 5 4 8 10 9 11 15 15 12 7 16 17 28 26 27 15 5 8 10 10 19 25 23 20 19 17 20 21 19 21 21
1 4 9 15 14 6 5 16 18 10 19 13 19 31 27 40 39 20 9 6 9 4 19 20 19 18 15 15 19 19 19 19
0 1 5 8 12 10 6 8 10 23 22 10 16 4 5 29 25 16 13 10 10 9 12 19 16 15 17 17 16 16 15 15
6 4 7 8 20 21 1 8 37 30 30 36 12 14 32 31 27 21 18 18 16 18 23 21 14 13 13 13 13 12 13 14
3 7 14 18 10 3 16 40 33 37 40 35 31 40 39 38 28 24 21 20 15 16 16 15 16 14 11 16 12 13 14 15
7 6 8 17 10 11 16 21 27 26 33 12 41 42 39 37 32 25 22 22 15 12 11 10 9 10 11 10 9 11 16 12
2 8 19 24 14 14 11 24 32 21 18 29 7 35 35 37 32 25 18 15 15 9 5 6 5 5 7 8 8 9 8 9
5 9 16 25 29 22 18 16 20 9 27 49 64 34 37 33 26 21 16 14 13 10 6 4 2 2 1 2 4 6 4 1
4 15 8 15 28 27 10 8 16 28 26 68 38 30 29 27 21 19 16 10 8 11 8 8 4 3 3 3 3 5 6 5
7 23 19 25 22 17 19 15 12 17 35 60 30 18 20 21 18 18 16 16 15 14 14 9 5 3 4 3 5 5 4 3
Wind_Direction
214 228 178 242 274 241 262 276 303 226 304 227 234 352 335 272 174 177 181 190 192 196 204 207 205 210 217 223 232 236 237 236
286 226 220 162 217 296 317 250 281 287 202 235 181 194 206 258 186 186 186 187 187 188 201 205 203 206 213 220 226 233 233 234
306 268 198 204 229 266 196 181 214 245 259 209 221 233 225 267 177 190 193 182 171 191 189 190 189 196 196 205 218 223 227 231
245 274 266 214 193 193 155 278 233 188 266 236 231 208 160 356 105 127 123 140 157 177 173 173 180 192 200 210 221 226 219 232
311 326 324 257 234 209 210 217 249 197 280 214 248 93 137 168 283 142 144 146 149 155 164 172 181 192 204 201 209 216 224 225
251 232 243 292 274 220 204 224 248 249 193 290 176 119 193 204 213 158 155 158 163 166 172 180 186 195 201 205 214 209 216 215
279 282 291 286 282 265 219 225 228 262 269 205 143 42 24 325 178 162 154 163 168 176 181 190 196 201 206 213 213 201 214 219
317 313 309 305 292 291 282 247 231 244 267 164 144 122 322 289 143 164 171 176 175 184 185 191 202 208 213 218 215 203 210 223
274 316 340 317 274 284 285 280 243 231 211 186 185 159 188 248 118 117 120 125 191 186 190 193 203 211 214 219 219 211 211 220
263 351 255 253 310 302 304 303 306 320 190 191 186 172 167 174 347 105 141 111 127 190 191 196 203 211 217 220 216 217 218 219
221 254 290 309 290 336 10 302 307 305 307 184 173 138 154 160 192 192 169 169 143 120 202 200 206 204 206 209 215 223 229 230
281 209 283 299 309 334 328 284 325 354 333 320 160 121 180 146 153 151 153 134 130 99 157 190 193 199 201 204 218 228 244 250
246 255 255 11 333 329 87 309 331 339 316 322 205 174 149 140 136 135 132 123 132 129 125 125 156 190 202 217 236 255 268 275
202 218 250 22 12 41 310 310 308 316 320 298 147 142 141 135 138 131 129 125 137 143 139 145 160 155 153 214 237 259 254 265
184 231 298 296 243 312 311 280 299 317 338 186 138 135 142 143 142 144 131 124 134 134 128 137 162 187 200 188 204 224 228 245
76 252 246 263 302 328 320 297 297 294 306 322 270 138 137 130 126 126 129 128 124 127 130 126 142 174 196 215 229 226 216 228
280 309 312 285 289 293 302 278 258 260 306 307 283 127 128 121 120 125 127 135 145 146 143 133 146 126 299 251 230 237 254 326
236 295 266 284 293 285 250 133 154 151 228 264 303 120 123 121 127 127 125 131 134 136 133 128 133 86 41 338 142 150 164 176
245 259 281 275 268 290 247 73 151 164 225 253 259 131 128 119 119 134 141 143 147 153 146 133 120 85 40 41 89 113 152 209